Terminal Aerodrome Forecast
Issued by NWS

Home | Current Version | Previous Version | Text Only | Print | Product List | Glossary On
Versions: 1 2 3 4 5 6 7 8 9 10 11 12 13 14 15
000
FTUS45 KRIW 260500
TAFCOD
TAF
KCOD 260535Z 2606/2706 34007KT P6SM VCSH SCT040 OVC080
     FM260900 34007KT 5SM -RASN BR SCT015 OVC030
     FM261100 35014G20KT 2SM -SN OVC008
     FM261900 35014G20KT 3SM -SNRA SCT008 OVC015
     FM262300 35015KT P6SM VCSH BKN025
     FM270300 30007KT P6SM SCT025 BKN050
      AMD LTD TO CLD VIS AND WIND=

USA.gov is the U.S. government's official web portal to all federal, state and local government web resources and services.